Other Public Products
Issued by NWS Grand Forks, ND

Home | Current Version | Previous Version | Text Only | Print | Product List | Glossary Off
Versions: 1 2 3 4 5 6 7 8 9 10 11 12 13 14 15 16 17 18 19 20 21 22 23 24 25 26 27 28 29 30 31 32 33 34 35 36 37 38 39 40 41 42 43 44 45 46 47 48 49 50

000
FPUS83 KFGF 230210
OPUFGF
PRAIRIE TO PINES WEATHER ROUNDUP
NATIONAL WEATHER SERVICE EASTERN NORTH DAKOTA/GRAND FORKS ND
900 PM CDT MON MAY 22 2017

 **SATELLITE DATA USED TO AUGMENT SKY COVER AT AUTOMATED STATIONS**
 *****  WEATHER ACROSS EASTERN NORTH DAKOTA  *****

CITY           SKY/WX    TMP DP  RH WIND       PRES   REMARKS
GRAND FORKS    CLOUDY    52  47  83 N13       29.90R
GRAND FORKS AF CLOUDY    50  46  87 N17G25    29.91S
GRAND CITY NWS NOT AVBL
BUXTON         NOT AVBL
DEVILS LAKE    CLOUDY    50  42  74 N21       29.98R
FARGO          CLOUDY    49  46  90 NW9       29.88S
WAHPETON ARPT  CLOUDY    50  41  71 NW7       29.89S
$$

 *****  WEATHER ACROSS CENTRAL AND WESTERN NORTH DAKOTA  *****

CITY           SKY/WX    TMP DP  RH WIND       PRES   REMARKS
JAMESTOWN      LGT RAIN  49  44  83 N17       29.95R
BISMARCK       CLOUDY    60  38  43 NW10      29.99R
MINOT          CLOUDY    57  37  47 N18       30.05R
MINOT AFB      CLOUDY    57  36  44 NE17      30.05R
GARRISON         N/A     58  31  35 NE15G24   30.02R
WILLISTON      CLOUDY    65  33  30 N15       30.08R
DICKINSON      CLOUDY    57  33  40 NW9       30.05R
HETTINGER      CLOUDY    57  34  41 N13       30.07R
$$

 *****  OTHER OBSERVATIONS NORTHEAST NORTH DAKOTA  *****

CITY           SKY/WX    TMP DP  RH WIND       PRES   REMARKS
WALHALLA       NOT AVBL
LANGDON        CLOUDY    48  45  87 N20G30    29.98R
CAVALIER       CLOUDY    50  45  81 N12G21    29.95R
GRAFTON        CLOUDY    50  48  93 N17G25    29.94R
CANDO          NOT AVBL
FORT TOTTEN      N/A     50  46  85 N7        29.95
ROLLA          CLOUDY    50  41  71 N18       30.03R
RUGBY          NOT AVBL
 ***** THE ABOVE OBSERVATIONS ARE NON NWS ARE NOT QUALITY
        CONTROLLED AND MAY MIS-REPORT RAIN FOR SNOW...
$$

 *****  OTHER OBSERVATIONS SOUTHEAST NORTH DAKOTA *****

CITY           SKY/WX    TMP DP  RH WIND       PRES   REMARKS
COOPERSTOWN    MOCLDY    48  45  87 N18       29.94R
VALLEY CITY    NOT AVBL
OAKES          NOT AVBL
GWINNER        CLEAR     50  46  87 MISG      29.91F
SHEYENNE NWR     N/A     50  47  88 NW7       29.95S
BUFFALO        NOT AVBL
WYNDMERE         N/A     48  45  87 NW8         N/A
 ***** THE ABOVE OBSERVATIONS ARE NON NWS ARE NOT QUALITY
       CONTROLLED AND MAY MIS-REPORT RAIN FOR SNOW...
$$

  *****  WEATHER ACROSS NORTHERN MINNESOTA  *****

CITY           SKY/WX    TMP DP  RH WIND       PRES   REMARKS
FLAG ISLAND    DRIZZLE   48  45  87 N16       29.88R
WARROAD        LGT RAIN  48  45  87 N8        29.89R
ROSEAU         MOCLDY    48  43  81 N8        29.89R
HALLOCK        CLOUDY    50  46  87 N12       29.92R
THF RVR FALLS  LGT RAIN  47  44  90 N7        29.89R
HALSTAD          N/A     49  45  85 N10         N/A
FOSSTON        CLOUDY    46  45  93 NW6       29.87S
BAUDETTE       LGT RAIN  47  46  97 N9        29.85R
WASKISH        DRIZZLE   46  45  93 NW3       29.85R
CROOKSTON      CLOUDY    50  46  87 N10       29.89R
$$
  *****  WEATHER ACROSS CENTRAL AND WEST MINNESOTA  *****

CITY           SKY/WX    TMP DP  RH WIND       PRES   REMARKS
BEMIDJI        CLOUDY    45  43  93 NW3       29.85S
PARK RAPIDS    CLOUDY    47  41  80 N7        29.85R
WADENA         CLOUDY    46  41  81 NW9       29.85S
DETROIT LAKES  MOCLDY    46  43  87 N7        29.88S
MOORHEAD       MOCLDY    48  45  87 NW8       29.89S
FERGUS FALLS   MOCLDY    48  43  81 N13       29.87S
ELBOW LAKE     CLOUDY    49  44  83 W12       29.87S
MORRIS MN      MOCLDY    52  45  76 NW12      29.87S
STAPLES        CLOUDY    48  41  76 N7        29.85R
WHEATON        CLOUDY    52  41  66 NW9G17    29.91S
$$
  *****  WEATHER ELSEWHERE ACROSS MINNESOTA  *****

CITY           SKY/WX    TMP DP  RH WIND       PRES   REMARKS
DULUTH         MOCLDY    50  42  74 N6        29.82R
INTRNTL FALLS  CLOUDY    48  44  86 N7        29.82S
ELY            CLOUDY    46  45  93 CALM      29.81R
CLOQUET        CLOUDY    48  43  81 CALM      29.82S
BRAINERD       CLOUDY    49  41  74 NW8       29.84R
HIBBING        CLOUDY    45  44  97 CALM      29.82R
ALEXANDRIA     FAIR      49  41  74 NW7       29.86R
SAINT CLOUD    FAIR      50  42  74 W5        29.84R
MINNEAPOLIS    CLOUDY    59  41  51 NW7       29.82R
$$

  *****  WEATHER ACROSS SOUTH DAKOTA  *****

CITY           SKY/WX    TMP DP  RH WIND       PRES   REMARKS
SIOUX FALLS    CLOUDY    52  45  77 N7        29.91R
BROOKINGS      CLOUDY    50  48  93 NW7       29.90R
WATERTOWN      CLOUDY    52  41  66 N13       29.90R
HURON          CLOUDY    54  44  69 N9        29.94R
SISSETON         N/A     51  43  74 N12       29.90R
ABERDEEN       LGT RAIN  51  40  65 N13       29.96R
MITCHELL       CLOUDY    54  45  71 W6        29.95R
PIERRE         CLOUDY    56  38  50 N14       30.00R
MOBRIDGE       CLOUDY    56  38  50 N8        29.98S
RAPID CITY     CLOUDY    50  42  74 NW10      30.11R
$$

  *****  SOME WEATHER IN NEARBY STATES *****

CITY           SKY/WX    TMP DP  RH WIND       PRES   REMARKS
GLASGOW MT     FAIR      62  33  33 NE8       30.15R
GREAT FALLS MT CLOUDY    67  43  41 CALM      30.19S
CHEYENNE WY    FAIR      44  31  60 NW13      30.19R
SCOTTSBLUFF NE FAIR      47  38  71 N8        30.14R
OMAHA NE       MOCLDY    63  52  67 S3        29.88S
DES MOINES IA  LGT RAIN  60  51  72 W14       29.87R
DAVENPORT IA   FAIR      60  54  80 S10       29.88S
CHICAGO IL     MOCLDY    63  53  70 SW13G23   29.91R
EAU CLAIRE WI  MOCLDY    57  44  62 NE5       29.81R
LA CROSSE WI   FAIR      59  51  75 N5        29.78F
$$

  *****  SOME NATIONAL WEATHER *****

CITY           SKY/WX    TMP DP  RH WIND       PRES   REMARKS
LA GUARDIA NY  MOCLDY    62  59  90 W7        29.96R
RALEIGH NC     LGT RAIN  73  67  81 E6        29.98S
ATLANTA GA     LGT RAIN  70  67  90 CALM      29.96S
NEW ORLEANS LA LGT RAIN  75  72  90 SE9       29.90R
OKLAHOMA CITY  LGT RAIN  61  59  93 N8        29.95F
ALBUQUERQUE NM FAIR      74  16  11 N22G30    30.03R
SALT LAKE CITY MOCLDY    73  36  25 NW3       30.14S
LOS ANGELES CA MOCLDY    60  57  89 W9        29.91S
BOISE ID       FAIR      79  39  23 NW12      30.08F
SEATTLE WA     FAIR      80  51  36 N6        30.05S
$$

*** WEATHER ACROSS MANITOBA...SASKATCHEWAN AND ONTARIO ***
                ***ONTARIO***

CITY           SKY/WX    TMP DP  RH WIND       PRES   REMARKS
GERALDTON      DRZL/FOG  48  46  93 N7        29.77R VSB 3/4
THUNDER BAY    NOT AVBL
SIOUX LOOKOUT  DRIZZLE   46  45  93 NE8       29.85R
TORONTO        CLEAR     57  46  67 SW10      29.96R
BIG TROUT LK   PTCLDY    55  36  47 NE9       30.03R
PICKLE LAKE    LGT RAIN  45  43  93 NE8       29.93R
DRYDEN         LGT RAIN  46  46 100 NE13      29.84R FOG
KENORA         LGT RAIN  46  45  93 N8        29.89R
$$
                *** MANITOBA***

CITY           SKY/WX    TMP DP  RH WIND       PRES   REMARKS
BRANDON        MOCLDY    55  36  47 NE10      30.05R
DAUPHIN        CLEAR     59  34  38 N14       30.07R
ISLAND LAKE    PTCLDY    61  32  33 NE10      30.08
PILOT MOUND      N/A     50  39  66 N14         N/A
THE PAS        PTCLDY    64  32  29 N8        30.09F
THOMPSON       PTCLDY    57  36  44 NE7       30.15F
WINNIPEG       MOCLDY    50  43  76 NE18G24   29.98R
LYNN LAKE      CLEAR     63  28  27 SE7       30.12F
CHURCHILL      FOG       30  30 100 SE8       30.26F VSB 1/8 WCI  23
GILLAM         PTCLDY    48  34  57 E6        30.20R
$$
                ***SASKATCHEWAN***

CITY           SKY/WX    TMP DP  RH WIND       PRES   REMARKS
ESTEVAN        PTCLDY    59  34  38 NE8       30.08R
KINDERSLEY     MOCLDY    70  28  21 W5        30.14F
LLOYDMINSTER   CLOUDY    66  39  37 S6        30.10F
PRINCE ALBERT  MOCLDY    68  32  26 N3        30.10F
REGINA         PTCLDY    64  28  25 N12       30.12R
YORKTON        CLEAR     61  32  33 E13       30.10R


USA.gov is the U.S. government's official web portal to all federal, state and local government web resources and services.